FW8128 Weather Reports


Display with metric or nautical units.
time (UTC)temp
F
wind
direction
speed
MPH
gust
MPH
rain 1hr
in
rain 24hr
in
rain mn
in
humidity
%
barometer
mb
20260509042356 56 0 0.0 1.0 0.00 0.00 0.00 81 1014.6
20260509041624 56 0 0.0 1.0 0.00 0.00 0.00 82 1014.6
20260509041354 56 0 0.0 3.0 0.00 0.00 0.00 81 1014.6
20260509040624 56 0 0.0 4.0 0.00 0.00 0.00 80 1014.5
20260509040124 56 0 1.0 4.0 0.00 0.00 0.00 80 1014.5
20260509035624 56 0 1.0 3.0 0.00 0.00 0.00 81 1014.4
20260509035125 56 0 0.0 4.0 0.00 0.00 0.00 80 1014.4
20260509034621 56 0 1.0 4.0 0.00 0.00 0.00 80 1014.5
20260509034119 55 331 1.0 4.0 0.00 0.00 0.00 82 1014.6
20260509033620 55 0 1.0 3.0 0.00 0.00 0.00 83 1014.6
20260509033124 55 348 0.0 4.0 0.00 0.00 0.00 86 1014.6
20260509033118 55 0 1.0 4.0 0.00 0.00 0.00 85 1014.6
20260509032349 54 0 0.0 2.0 0.00 0.00 0.00 86 1014.5
20260509031620 55 0 0.0 2.0 0.00 0.00 0.00 87 1014.5
20260509031119 55 0 0.0 2.0 0.00 0.00 0.00 87 1014.5
20260509030620 55 0 0.0 2.0 0.00 0.00 0.00 87 1014.5
20260509030120 55 0 0.0 0.0 0.00 0.00 0.00 86 1014.6
20260509025620 55 0 0.0 0.0 0.00 0.00 0.00 86 1014.7
20260509025350 55 0 0.0 0.0 0.00 0.00 0.00 86 1014.8
20260509024620 55 0 0.0 2.0 0.00 0.00 0.00 86 1014.9
20260509024117 55 0 0.0 2.0 0.00 0.00 0.00 86 1015.0
20260509023848 55 276 0.0 2.0 0.00 0.00 0.00 85 1014.9
20260509023116 55 0 0.0 0.0 0.00 0.00 0.00 85 1014.9
20260509022618 55 0 0.0 0.0 0.00 0.00 0.00 85 1014.8
20260509022117 55 0 0.0 0.0 0.00 0.00 0.00 85 1014.7
20260509021618 55 0 0.0 0.0 0.00 0.00 0.00 85 1014.8
20260509021117 55 0 0.0 0.0 0.00 0.00 0.00 85 1014.7
20260509020850 55 0 0.0 0.0 0.00 0.00 0.00 84 1014.8
20260509020117 56 0 0.0 0.0 0.00 0.00 0.00 83 1014.8
20260509015618 56 0 0.0 0.0 0.00 0.00 0.00 83 1014.7
20260509015117 56 0 0.0 0.0 0.00 0.00 0.00 82 1014.7
20260509014619 56 0 0.0 0.0 0.00 0.00 0.00 82 1014.7
20260509014117 56 0 0.0 0.0 0.00 0.00 0.00 82 1014.8
20260509013114 56 0 0.0 0.0 0.00 0.00 0.00 81 1014.5
20260509012615 56 0 0.0 0.0 0.00 0.00 0.00 81 1014.5
20260509012114 56 0 0.0 0.0 0.00 0.00 0.00 81 1014.5
20260509011616 57 0 0.0 0.0 0.00 0.00 0.00 80 1014.5
20260509011346 57 0 0.0 2.0 0.00 0.00 0.00 78 1014.4
20260509010616 57 0 0.0 2.0 0.00 0.00 0.00 77 1014.3
20260509010346 57 0 0.0 0.0 0.00 0.00 0.00 77 1014.3
20260509005613 57 0 0.0 0.0 0.00 0.00 0.00 76 1014.3
20260509005113 58 0 0.0 0.0 0.00 0.00 0.00 76 1014.2
20260509004614 58 0 0.0 0.0 0.00 0.00 0.00 76 1014.3
20260509004112 58 0 0.0 3.0 0.00 0.00 0.00 74 1014.3
20260509003614 58 0 0.0 3.0 0.00 0.00 0.00 74 1014.3
20260509003113 59 0 0.0 2.0 0.00 0.00 0.00 74 1014.3
20260509002842 59 0 0.0 0.0 0.00 0.00 0.00 72 1014.2
20260509002113 60 0 0.0 0.0 0.00 0.00 0.00 71 1014.1
20260509002108 59 0 0.0 0.0 0.00 0.00 0.00 72 1014.1
20260509001108 60 0 0.0 0.0 0.00 0.00 0.00 71 1014.0
20260509000838 61 0 0.0 0.0 0.00 0.00 0.00 72 1013.9
20260509000105 61 0 0.0 0.0 0.00 0.00 0.00 73 1013.9
20260508235605 62 0 0.0 0.0 0.00 0.00 0.00 72 1013.9
20260508235102 62 0 0.0 0.0 0.00 0.00 0.00 70 1013.8
20260508234602 62 0 0.0 0.0 0.00 0.00 0.00 68 1013.8
20260508234102 63 0 0.0 0.0 0.00 0.00 0.00 67 1013.8
20260508233602 64 0 0.0 0.0 0.00 0.00 0.00 67 1013.7
20260508233332 64 0 0.0 0.0 0.00 0.00 0.00 67 1013.6
20260508232602 65 0 0.0 0.0 0.00 0.00 0.00 65 1013.7
20260508232102 65 0 0.0 0.0 0.00 0.00 0.00 66 1013.8
20260508231602 65 0 0.0 0.0 0.00 0.00 0.00 64 1013.9
20260508231102 66 0 0.0 0.0 0.00 0.00 0.00 63 1013.9
20260508230602 66 0 0.0 0.0 0.00 0.00 0.00 57 1013.8
20260508230100 67 0 0.0 0.0 0.00 0.00 0.00 53 1013.8
20260508225600 67 0 0.0 0.0 0.00 0.00 0.00 57 1013.8
20260508225101 67 0 0.0 0.0 0.00 0.00 0.00 51 1013.9
20260508224601 67 0 0.0 0.0 0.00 0.00 0.00 52 1013.8
20260508224101 67 0 0.0 0.0 0.00 0.00 0.00 49 1013.8
20260508223831 68 0 0.0 0.0 0.00 0.00 0.00 49 1013.8
20260508223101 68 0 0.0 2.0 0.00 0.00 0.00 49 1013.7
20260508222831 68 0 0.0 2.0 0.00 0.06 0.00 48 1013.7
20260508222101 68 0 0.0 2.0 0.00 0.17 0.00 47 1013.7
20260508221600 69 0 0.0 3.0 0.00 0.18 0.00 47 1013.6
20260508221102 69 188 0.0 3.0 0.00 0.18 0.00 45 1013.5
20260508220601 69 330 0.0 3.0 0.00 0.18 0.00 47 1013.4
20260508220100 69 183 0.0 3.0 0.00 0.18 0.00 46 1013.4
20260508215601 69 0 0.0 0.0 0.00 0.18 0.00 45 1013.3
20260508215333 70 0 0.0 2.0 0.00 0.18 0.00 47 1013.4
20260508214602 70 0 0.0 2.0 0.00 0.18 0.00 43 1013.4
20260508214100 70 234 0.0 2.0 0.00 0.18 0.00 40 1013.5
20260508213559 71 0 0.0 2.0 0.00 0.18 0.00 42 1013.5
20260508213059 71 0 0.0 3.0 0.00 0.18 0.00 41 1013.5
20260508212559 71 0 0.0 3.0 0.00 0.18 0.00 41 1013.5
20260508212059 71 0 0.0 2.0 0.00 0.18 0.00 43 1013.5
20260508211559 71 0 1.0 4.0 0.00 0.18 0.00 43 1013.6
20260508211331 71 244 1.0 4.0 0.00 0.18 0.00 40 1013.5
20260508210559 71 0 1.0 4.0 0.00 0.18 0.00 39 1013.5
20260508210058 71 0 1.0 3.0 0.00 0.18 0.00 38 1013.6
20260508205829 71 0 1.0 3.0 0.00 0.18 0.00 38 1013.5
20260508205058 70 0 1.0 5.0 0.00 0.18 0.00 39 1013.5
20260508204830 70 0 2.0 5.0 0.00 0.18 0.00 39 1013.6
20260508204056 71 277 1.0 5.0 0.00 0.18 0.00 38 1013.7
20260508203826 72 0 1.0 4.0 0.00 0.18 0.00 38 1013.8
20260508203056 72 274 1.0 4.0 0.00 0.18 0.00 39 1013.8
20260508202827 72 0 1.0 4.0 0.00 0.18 0.00 38 1013.8
20260508202055 72 262 1.0 5.0 0.00 0.18 0.00 39 1013.7
20260508201555 72 0 1.0 5.0 0.00 0.18 0.00 37 1013.9
20260508201326 73 0 1.0 4.0 0.00 0.18 0.00 36 1014.0
20260508200602 73 0 1.0 6.0 0.00 0.18 0.00 36 1014.4
20260508200556 73 0 1.0 6.0 0.00 0.18 0.00 35 1014.1
20260508195556 73 332 0.0 4.0 0.00 0.18 0.00 36 1014.2
20260508195056 72 0 1.0 5.0 0.00 0.18 0.00 40 1014.3
20260508194554 72 224 1.0 5.0 0.00 0.18 0.00 37 1014.3
20260508194324 72 178 0.0 5.0 0.00 0.18 0.00 43 1014.4
20260508193554 71 0 1.0 4.0 0.00 0.18 0.00 41 1014.5
20260508193050 71 12 1.0 4.0 0.00 0.18 0.00 45 1014.6
20260508192551 71 0 1.0 5.0 0.00 0.18 0.00 40 1014.5
20260508192321 71 0 1.0 5.0 0.00 0.18 0.00 43 1014.5
20260508191821 71 242 1.0 6.0 0.00 0.18 0.00 46 1014.6
20260508191322 71 32 2.0 6.0 0.00 0.18 0.00 44 1014.7
20260508190820 71 276 1.0 6.0 0.00 0.18 0.00 39 1015.1
20260508190048 71 0 1.0 7.0 0.00 0.18 0.00 40 1015.0
20260508185548 71 224 1.0 7.0 0.00 0.18 0.00 41 1015.0
20260508185049 70 0 0.0 3.0 0.00 0.18 0.00 41 1014.9
20260508184548 70 313 2.0 6.0 0.00 0.18 0.00 40 1014.9
20260508184048 70 0 3.0 7.0 0.00 0.18 0.00 39 1015.0
20260508183546 71 345 2.0 7.0 0.00 0.18 0.00 41 1015.1
20260508183046 71 32 1.0 7.0 0.00 0.18 0.00 40 1015.2
20260508182546 71 0 1.0 7.0 0.00 0.18 0.00 42 1015.3
20260508182046 71 0 1.0 4.0 0.00 0.18 0.00 36 1015.3
20260508181817 71 0 1.0 5.0 0.00 0.18 0.00 41 1015.4
20260508181046 70 348 1.0 5.0 0.00 0.18 0.00 36 1015.5
20260508180545 70 345 1.0 7.0 0.00 0.18 0.00 43 1015.6
20260508180046 70 0 1.0 7.0 0.00 0.18 0.00 46 1015.7
20260508175546 69 276 1.0 4.0 0.00 0.18 0.00 41 1015.7
20260508175046 69 29 1.0 5.0 0.00 0.18 0.00 41 1015.8
20260508174546 69 178 1.0 5.0 0.00 0.18 0.00 37 1015.9
20260508174044 68 275 2.0 6.0 0.00 0.18 0.00 41 1015.9
20260508173541 68 249 2.0 6.0 0.00 0.18 0.00 44 1016.0
20260508173040 68 0 2.0 6.0 0.00 0.18 0.00 45 1016.1
20260508172538 68 234 1.0 4.0 0.00 0.18 0.00 46 1016.2
20260508172038 68 0 1.0 6.0 0.00 0.18 0.00 41 1016.2
20260508171808 67 0 2.0 7.0 0.00 0.18 0.00 46 1016.3
20260508171645 68 348 2.0 7.0 0.00 0.18 0.00 42 1016.4
20260508170538 68 320 1.0 5.0 0.00 0.18 0.00 41 1016.5
20260508170037 68 83 1.0 6.0 0.00 0.18 0.00 44 1016.5
20260508165808 68 0 1.0 6.0 0.00 0.18 0.00 51 1016.6
20260508165035 68 0 1.0 6.0 0.00 0.18 0.00 45 1016.6
20260508164532 68 2 2.0 6.0 0.00 0.19 0.00 42 1016.6
20260508164033 68 246 1.0 5.0 0.00 0.20 0.00 46 1016.7
20260508163803 67 129 1.0 7.0 0.00 0.20 0.00 49 1016.8
20260508163032 67 0 1.0 7.0 0.00 0.20 0.00 49 1016.9
20260508162533 66 0 1.0 4.0 0.00 0.20 0.00 48 1017.1
20260508162030 66 162 1.0 9.0 0.00 0.20 0.00 50 1017.1
20260508161530 66 282 2.0 9.0 0.00 0.20 0.00 47 1017.2
20260508161030 66 29 2.0 9.0 0.00 0.20 0.00 49 1017.3
20260508160529 66 227 2.0 5.0 0.00 0.20 0.00 46 1017.4
20260508160030 66 175 1.0 5.0 0.00 0.20 0.00 46 1017.5
20260508155530 65 0 1.0 5.0 0.00 0.20 0.00 51 1017.5
20260508155305 64 285 3.0 9.0 0.00 0.20 0.00 51 1017.5
20260508154530 64 297 2.0 9.0 0.00 0.20 0.00 49 1017.5
20260508154028 64 339 2.0 8.0 0.00 0.20 0.00 50 1017.5
20260508153525 64 359 3.0 8.0 0.00 0.20 0.00 48 1017.5
20260508153025 64 331 3.0 8.0 0.00 0.20 0.00 49 1017.6
20260508152525 64 38 2.0 8.0 0.00 0.20 0.00 48 1017.6
20260508152255 64 0 2.0 6.0 0.00 0.20 0.00 51 1017.8
20260508151522 63 49 2.0 7.0 0.00 0.21 0.00 52 1017.8
20260508151253 63 19 2.0 11.0 0.00 0.21 0.00 57 1018.0
20260508150527 63 26 3.0 9.0 0.00 0.22 0.00 50 1018.1
20260508150522 63 0 3.0 11.0 0.00 0.21 0.00 54 1018.1
20260508145522 63 25 2.0 8.0 0.00 0.22 0.00 55 1018.1
20260508145022 62 0 2.0 6.0 0.00 0.24 0.00 57 1018.2
20260508144752 62 91 2.0 7.0 0.00 0.24 0.00 52 1018.2
20260508144019 62 315 3.0 9.0 0.00 0.24 0.00 54 1018.2
20260508143520 62 20 4.0 9.0 0.00 0.24 0.00 52 1018.1
20260508143016 62 351 3.0 8.0 0.00 0.24 0.00 63 1018.1
20260508142516 62 302 2.0 8.0 0.00 0.24 0.00 59 1018.2
20260508142248 62 9 2.0 8.0 0.00 0.24 0.00 62 1018.1
20260508141517 62 351 1.0 4.0 0.00 0.24 0.00 64 1018.1
20260508141016 61 359 1.0 6.0 0.00 0.24 0.00 67 1018.2
20260508140514 60 217 2.0 6.0 0.00 0.24 0.00 70 1018.2
20260508140014 60 14 2.0 7.0 0.00 0.24 0.00 68 1018.2
20260508135514 59 37 2.0 7.0 0.00 0.24 0.00 68 1018.2
20260508135013 59 2 3.0 7.0 0.00 0.25 0.00 68 1018.3
20260508134746 58 310 4.0 9.0 0.00 0.25 0.00 68 1018.3
20260508134014 58 22 4.0 9.0 0.00 0.25 0.00 69 1018.1
20260508133514 58 15 2.0 8.0 0.00 0.25 0.00 72 1018.1
20260508133246 58 294 2.0 6.0 0.00 0.25 0.00 78 1018.1
20260508132743 58 1 1.0 6.0 0.00 0.26 0.00 83 1018.0
20260508132012 57 22 1.0 4.0 0.00 0.26 0.00 89 1018.0
20260508131743 56 32 2.0 6.0 0.00 0.26 0.00 93 1018.0
20260508131013 54 34 2.0 6.0 0.00 0.26 0.00 94 1018.0
20260508130512 54 352 1.0 5.0 0.00 0.26 0.00 97 1018.0
20260508130013 55 0 0.0 5.0 0.00 0.26 0.00 97 1017.8
20260508125743 54 0 0.0 2.0 0.00 0.28 0.00 97 1017.8
20260508125013 53 0 0.0 2.0 0.00 0.29 0.00 97 1017.8
20260508124512 52 0 0.0 2.0 0.00 0.30 0.00 97 1017.8
20260508124244 52 0 0.0 2.0 0.00 0.31 0.00 96 1017.8
20260508123511 51 286 0.0 2.0 0.00 0.33 0.00 96 1017.7
20260508123012 50 0 0.0 0.0 0.00 0.35 0.00 96 1017.7
20260508122511 50 0 0.0 1.0 0.00 0.35 0.00 96 1017.7
20260508122012 49 0 0.0 2.0 0.00 0.36 0.00 96 1017.7
20260508121458 49 0 0.0 2.0 0.00 0.36 0.00 96 1017.7
20260508120958 48 0 0.0 0.0 0.00 0.36 0.00 96 1017.7
20260508120442 48 0 0.0 0.0 0.00 0.36 0.00 96 1017.6
20260508115944 47 0 0.0 0.0 0.00 0.37 0.00 96 1017.5
20260508115443 47 0 0.0 1.0 0.00 0.38 0.00 95 1017.5
20260508114944 46 0 0.0 1.0 0.00 0.38 0.00 95 1017.4
20260508114443 46 192 1.0 2.0 0.00 0.38 0.00 95 1017.2
20260508113944 46 0 1.0 2.0 0.00 0.38 0.00 95 1017.2
20260508113443 46 193 0.0 2.0 0.00 0.38 0.00 95 1017.2
20260508112944 45 0 0.0 0.0 0.00 0.39 0.00 95 1017.1
20260508112443 45 0 0.0 0.0 0.00 0.39 0.00 95 1017.2
20260508112215 45 0 0.0 0.0 0.00 0.39 0.00 95 1017.1
20260508111444 45 0 0.0 2.0 0.00 0.39 0.00 95 1017.1
20260508110930 45 0 1.0 2.0 0.00 0.39 0.00 95 1016.9
20260508110414 45 108 1.0 2.0 0.00 0.39 0.00 95 1016.8
20260508105915 44 185 1.0 2.0 0.00 0.39 0.00 95 1016.7
20260508105414 44 63 1.0 2.0 0.00 0.39 0.00 95 1016.6
20260508104915 44 200 1.0 2.0 0.00 0.39 0.00 95 1016.3
20260508104414 44 0 0.0 2.0 0.00 0.39 0.00 95 1016.3
20260508104145 45 0 0.0 2.0 0.00 0.39 0.00 95 1016.3
20260508103414 45 91 0.0 2.0 0.00 0.39 0.00 95 1016.2
20260508102914 45 114 0.0 2.0 0.00 0.39 0.00 95 1016.1
20260508102413 45 220 0.0 2.0 0.00 0.39 0.00 95 1016.0
20260508102145 45 0 0.0 0.0 0.00 0.39 0.00 95 1016.1
20260508101413 46 0 0.0 0.0 0.00 0.39 0.00 95 1016.0
20260508100914 46 0 0.0 0.0 0.00 0.39 0.00 95 1016.0
20260508100643 46 0 0.0 0.0 0.00 0.39 0.00 95 1015.9
20260508095914 46 0 0.0 0.0 0.00 0.39 0.00 95 1015.8
20260508095400 46 0 0.0 0.0 0.00 0.39 0.00 95 1015.7
20260508094859 46 0 0.0 0.0 0.00 0.39 0.00 95 1015.7
20260508094400 46 0 0.0 0.0 0.00 0.39 0.00 95 1015.7
20260508093859 46 0 0.0 0.0 0.00 0.39 0.00 95 1015.6
20260508093632 47 0 0.0 0.0 0.00 0.39 0.00 95 1015.6
20260508092900 47 0 0.0 0.0 0.00 0.39 0.00 95 1015.5
20260508092636 47 0 0.0 0.0 0.00 0.39 0.00 95 1015.5
20260508092400 47 0 0.0 0.0 0.00 0.39 0.00 95 1015.5
20260508091401 47 0 0.0 0.0 0.00 0.39 0.00 95 1015.4
20260508090901 47 0 0.0 2.0 0.00 0.41 0.00 95 1015.3
20260508090401 47 0 0.0 2.0 0.00 0.43 0.00 95 1015.4
20260508090131 47 0 0.0 0.0 0.00 0.43 0.00 95 1015.5
20260508085849 47 0 0.0 0.0 0.00 0.43 0.00 95 1015.4
20260508084832 47 0 0.0 0.0 0.00 0.43 0.00 95 1015.3
20260508084332 47 0 0.0 0.0 0.00 0.43 0.00 95 1015.3
20260508083832 48 0 0.0 3.0 0.00 0.43 0.00 95 1015.3
20260508083602 48 0 0.0 3.0 0.00 0.43 0.00 95 1015.3
20260508082832 48 0 0.0 0.0 0.00 0.43 0.00 95 1015.2
20260508082332 48 0 0.0 0.0 0.00 0.43 0.00 95 1015.2
20260508081833 48 0 0.0 0.0 0.00 0.43 0.00 95 1015.2
20260508081333 48 0 0.0 0.0 0.00 0.43 0.00 95 1015.1
20260508080832 48 0 0.0 0.0 0.00 0.43 0.00 95 1014.9
20260508080603 48 0 0.0 0.0 0.00 0.43 0.00 95 1015.0
20260508075832 49 0 0.0 0.0 0.00 0.43 0.00 95 1015.0
20260508075331 49 0 0.0 0.0 0.00 0.43 0.00 95 1014.9
20260508075102 49 0 0.0 3.0 0.00 0.45 0.00 95 1014.9
20260508074316 49 1 0.0 3.0 0.00 0.46 0.00 95 1014.9
20260508073816 49 0 0.0 0.0 0.00 0.47 0.00 95 1014.8
20260508073316 49 0 0.0 0.0 0.00 0.47 0.00 95 1014.8
20260508072817 49 0 0.0 0.0 0.00 0.48 0.00 95 1014.8
20260508072317 49 0 0.0 0.0 0.00 0.48 0.00 95 1014.8
20260508071817 49 0 0.0 0.0 0.00 0.48 0.00 95 1014.7
20260508071316 49 0 0.0 0.0 0.00 0.49 0.00 95 1014.7
20260508070816 49 0 0.0 0.0 0.00 0.49 0.00 95 1014.6
20260508070548 50 0 0.0 0.0 0.00 0.49 0.00 95 1014.6
20260508065815 50 0 0.0 0.0 0.00 0.50 0.00 95 1014.5
20260508065316 50 0 0.0 0.0 0.00 0.50 0.00 95 1014.6
20260508064816 50 0 0.0 0.0 0.00 0.51 0.00 95 1014.5
20260508064302 50 0 0.0 0.0 0.00 0.51 0.00 95 1014.5
20260508064034 50 0 0.0 0.0 0.00 0.52 0.00 95 1014.5
20260508063302 50 0 0.0 0.0 0.00 0.53 0.00 95 1014.5
20260508062802 50 0 0.0 0.0 0.00 0.55 0.00 95 1014.5
20260508062306 50 0 0.0 0.0 0.00 0.56 0.00 95 1014.6
20260508061803 50 0 0.0 0.0 0.00 0.56 0.00 95 1014.7
20260508061534 50 0 0.0 0.0 0.00 0.57 0.00 95 1014.6
20260508060803 50 0 0.0 0.0 0.00 0.57 0.00 95 1014.6
20260508060303 50 0 0.0 0.0 0.00 0.59 0.00 95 1014.6
20260508055804 50 0 0.0 0.0 0.00 0.60 0.00 95 1014.6
20260508055306 50 0 0.0 0.0 0.00 0.61 0.00 95 1014.5
20260508054803 50 0 0.0 0.0 0.00 0.61 0.00 95 1014.5
20260508054304 50 0 0.0 0.0 0.00 0.62 0.00 95 1014.4
20260508053749 50 0 0.0 0.0 0.00 0.65 0.00 95 1014.4
20260508053250 50 0 0.0 0.0 0.00 0.69 0.00 95 1014.4
20260508052749 50 0 0.0 0.0 0.00 0.70 0.00 95 1014.5
20260508052250 50 0 0.0 0.0 0.00 0.70 0.00 95 1014.5
20260508052021 50 0 0.0 0.0 0.00 0.70 0.00 95 1014.5
20260508051521 50 0 0.0 0.0 0.00 0.70 0.00 95 1014.4
20260508050749 50 0 0.0 0.0 0.00 0.70 0.00 95 1014.5
20260508050521 51 0 0.0 0.0 0.00 0.70 0.00 95 1014.4
20260508045749 51 0 0.0 0.0 0.00 0.70 0.00 95 1014.3
20260508045251 51 0 0.0 0.0 0.00 0.70 0.00 95 1014.3
20260508044756 51 0 0.0 0.0 0.00 0.70 0.00 95 1014.2
20260508044750 51 0 0.0 0.0 0.00 0.70 0.00 95 1014.3
20260508044007 51 0 0.0 0.0 0.00 0.70 0.00 95 1014.1
20260508043222 51 0 0.0 0.0 0.00 0.70 0.00 95 1014.1
20260508042953 51 0 0.0 0.0 0.00 0.70 0.00 95 1014.2